Location: Newark
(47.5000°N, 4.6167°E)
Time: 02:28:18
(UTC+00:00)

X-37B - Pass Details

Date: 11 December 2021
Orbit: 334 x 337 km, 45.0° (Epoch: 11 January)

Event Time Altitude Azimuth Distance (km) Brightness Sun altitude
Rises 16:58:36 0° 244° (WSW) 2,100 6.5 -11.0°
Reaches altitude 10° 17:00:41 10° 235° (SW) 1,265 4.6 -11.3°
Maximum altitude 17:03:19 36° 166° (SSE) 548 1.4 -11.7°
Enters shadow 17:05:04 17° 106° (ESE) 935 2.0 -12.0°
